TimeSAST,TemperatureF,Dew PointF,Humidity,Sea Level PressureIn,VisibilityMPH,Wind Direction,Wind SpeedMPH,Gust SpeedMPH,PrecipitationIn,Events,Conditions,WindDirDegrees,DateUTC
12:00 AM,53.6,37.4,54,30.18,-9999.0,North,4.6,-,N/A,,Clear,350,2013-08-03 22:00:00
1:00 AM,59.0,33.8,39,30.15,-9999.0,NNW,3.5,-,N/A,,Clear,340,2013-08-03 23:00:00
2:00 AM,66,33,18,30.16,19,NNW,6.9,,,,,340,2013-08-04 00:00:00
2:00 AM,66.2,33.8,30,30.15,-9999.0,North,5.8,-,N/A,,Clear,360,2013-08-04 00:00:00
3:00 AM,66.2,33.8,30,30.15,-9999.0,North,11.5,-,N/A,,Clear,360,2013-08-04 01:00:00
4:00 AM,66.2,33.8,30,30.15,-9999.0,North,12.7,-,N/A,,Clear,350,2013-08-04 02:00:00
5:00 AM,67,32,16,30.14,12,North,12.7,,,,,350,2013-08-04 03:00:00
5:00 AM,68.0,32.0,26,30.12,-9999.0,North,12.7,-,N/A,,Clear,350,2013-08-04 03:00:00
6:00 AM,68.0,32.0,26,30.12,-9999.0,North,11.5,-,N/A,,Clear,350,2013-08-04 04:00:00
7:00 AM,66.2,32.0,28,30.12,-9999.0,North,12.7,-,N/A,,Clear,350,2013-08-04 05:00:00
8:00 AM,64.4,33.8,32,30.15,-9999.0,NNW,8.1,-,N/A,,Clear,340,2013-08-04 06:00:00
9:00 AM,73.4,37.4,27,30.15,-9999.0,NNW,9.2,-,N/A,,Clear,340,2013-08-04 07:00:00
10:00 AM,77.0,37.4,24,30.15,-9999.0,NNW,13.8,-,N/A,,Clear,340,2013-08-04 08:00:00
11:00 AM,78,36,13,30.18,12,NNW,12.7,,,,,340,2013-08-04 09:00:00
12:00 PM,80.6,33.8,18,30.15,-9999.0,NNW,16.1,-,N/A,,Clear,330,2013-08-04 10:00:00
1:00 PM,82.4,33.8,17,30.12,-9999.0,NNW,15.0,-,N/A,,Clear,340,2013-08-04 11:00:00
2:00 PM,81,35,11,30.12,12,NNW,16.1,,,,Clear,330,2013-08-04 12:00:00
2:00 PM,80.6,33.8,18,30.09,-9999.0,NNW,16.1,-,N/A,,Clear,330,2013-08-04 12:00:00
3:00 PM,80.6,35.6,20,30.09,-9999.0,NNW,11.5,-,N/A,,Clear,340,2013-08-04 13:00:00
4:00 PM,66.2,48.2,52,30.12,-9999.0,South,13.8,-,N/A,,Clear,190,2013-08-04 14:00:00
5:00 PM,60.8,55.4,82,30.12,6.2,SW,6.9,-,N/A,,Partly Cloudy,220,2013-08-04 15:00:00
6:00 PM,55.4,53.6,94,30.12,-9999.0,SSW,9.2,-,N/A,,Mostly Cloudy,210,2013-08-04 16:00:00
7:00 PM,53.6,51.8,94,30.15,0.6,Variable,2.3,-,N/A,Fog,Fog,0,2013-08-04 17:00:00
8:00 PM,54,53,93,30.19,2,WNW,3.5,,,,Mist,300,2013-08-04 18:00:00
8:00 PM,53.6,51.8,94,30.18,1.9,Variable,2.3,-,N/A,,Overcast,0,2013-08-04 18:00:00